| time (UTC) | temp F | wind direction | speed MPH | gust MPH | rain 1hr in | rain 24hr in | rain mn in | humidity % | barometer mb |
| 20260905200130 | 66 | 232 | 1.0 | 4.0 | 0.00 | 0.00 | 0.00 | 38 | 1017.3 |
| 20260905195540 | 66 | 186 | 0.0 | 3.0 | 0.00 | 0.00 | 0.00 | 39 | 1017.4 |
| 20260905195040 | 66 | 187 | 1.0 | 3.0 | 0.00 | 0.00 | 0.00 | 40 | 1017.5 |
| 20260905194627 | 66 | 83 | 0.0 | 3.0 | 0.00 | 0.00 | 0.00 | 40 | 1017.4 |
| 20260905194045 | 66 | 196 | 0.0 | 4.0 | 0.00 | 0.00 | 0.00 | 42 | 1017.7 |
| 20260905193519 | 67 | 151 | 1.0 | 2.0 | 0.00 | 0.00 | 0.00 | 40 | 1017.5 |
| 20260905193127 | 67 | 152 | 0.0 | 2.0 | 0.00 | 0.00 | 0.00 | 43 | 1017.5 |
| 20260905192526 | 67 | 127 | 0.0 | 3.0 | 0.00 | 0.00 | 0.00 | 39 | 1017.6 |
| 20260905192025 | 68 | 96 | 1.0 | 4.0 | 0.00 | 0.00 | 0.00 | 40 | 1017.9 |
| 20260905191626 | 68 | 190 | 1.0 | 7.0 | 0.00 | 0.00 | 0.00 | 41 | 1017.8 |
| 20260905191040 | 68 | 30 | 1.0 | 7.0 | 0.00 | 0.00 | 0.00 | 37 | 1017.8 |
| 20260905190532 | 69 | 315 | 2.0 | 6.0 | 0.00 | 0.00 | 0.00 | 39 | 1017.9 |
| 20260905190143 | 68 | 172 | 2.0 | 6.0 | 0.00 | 0.00 | 0.00 | 39 | 1017.9 |
| 20260905185523 | 69 | 350 | 1.0 | 4.0 | 0.00 | 0.00 | 0.00 | 40 | 1017.9 |
| 20260905185028 | 68 | 76 | 1.0 | 4.0 | 0.00 | 0.00 | 0.00 | 43 | 1017.9 |
| 20260905184638 | 68 | 146 | 1.0 | 5.0 | 0.00 | 0.00 | 0.00 | 44 | 1017.9 |
| 20260905184031 | 67 | 94 | 1.0 | 7.0 | 0.00 | 0.00 | 0.00 | 43 | 1018.0 |
| 20260905183542 | 67 | 109 | 1.0 | 7.0 | 0.00 | 0.00 | 0.00 | 47 | 1018.2 |
| 20260905183133 | 67 | 23 | 2.0 | 4.0 | 0.00 | 0.00 | 0.00 | 48 | 1018.2 |
| 20260905182533 | 67 | 351 | 1.0 | 3.0 | 0.00 | 0.00 | 0.00 | 46 | 1018.2 |
| 20260905182023 | 66 | 38 | 1.0 | 3.0 | 0.00 | 0.00 | 0.00 | 48 | 1018.2 |
| 20260905181646 | 66 | 29 | 0.0 | 3.0 | 0.00 | 0.00 | 0.00 | 49 | 1018.4 |
| 20260905181045 | 65 | 53 | 1.0 | 3.0 | 0.00 | 0.00 | 0.00 | 52 | 1018.3 |
| 20260905180536 | 65 | 49 | 0.0 | 2.0 | 0.00 | 0.00 | 0.00 | 51 | 1018.4 |
| 20260905180159 | 64 | 333 | 1.0 | 4.0 | 0.00 | 0.00 | 0.00 | 52 | 1018.4 |
| 20260905175525 | 64 | 360 | 1.0 | 6.0 | 0.00 | 0.00 | 0.00 | 50 | 1018.5 |
| 20260905175041 | 64 | 159 | 1.0 | 6.0 | 0.00 | 0.00 | 0.00 | 54 | 1018.5 |
| 20260905174629 | 63 | 186 | 1.0 | 4.0 | 0.00 | 0.00 | 0.00 | 53 | 1018.6 |
| 20260905174050 | 63 | 51 | 1.0 | 4.0 | 0.00 | 0.00 | 0.00 | 54 | 1018.6 |
| 20260905173524 | 62 | 62 | 1.0 | 4.0 | 0.00 | 0.00 | 0.00 | 58 | 1018.7 |
| 20260905173126 | 62 | 265 | 1.0 | 4.0 | 0.00 | 0.00 | 0.00 | 54 | 1018.8 |
| 20260905172545 | 61 | 60 | 1.0 | 5.0 | 0.00 | 0.00 | 0.00 | 54 | 1018.8 |
| 20260905172031 | 61 | 338 | 2.0 | 5.0 | 0.00 | 0.00 | 0.00 | 53 | 1018.8 |
| 20260905171624 | 61 | 84 | 1.0 | 3.0 | 0.00 | 0.00 | 0.00 | 55 | 1018.9 |
| 20260905171031 | 60 | 319 | 1.0 | 2.0 | 0.00 | 0.00 | 0.00 | 59 | 1018.8 |
| 20260905170525 | 59 | 241 | 0.0 | 2.0 | 0.00 | 0.00 | 0.00 | 58 | 1018.8 |
| 20260905170131 | 58 | 115 | 0.0 | 2.0 | 0.00 | 0.00 | 0.00 | 60 | 1019.0 |
| 20260905165526 | 58 | 325 | 0.0 | 2.0 | 0.00 | 0.00 | 0.00 | 60 | 1019.0 |
| 20260905165040 | 57 | 5 | 0.0 | 2.0 | 0.00 | 0.00 | 0.00 | 61 | 1019.2 |
| 20260905164821 | 57 | 57 | 0.0 | 2.0 | 0.00 | 0.00 | 0.00 | 65 | 1019.1 |
| 20260905164037 | 56 | 53 | 0.0 | 2.0 | 0.00 | 0.00 | 0.00 | 64 | 1019.3 |
| 20260905163526 | 56 | 186 | 0.0 | 3.0 | 0.00 | 0.00 | 0.00 | 64 | 1019.3 |
| 20260905163126 | 55 | 124 | 0.0 | 3.0 | 0.00 | 0.00 | 0.00 | 68 | 1019.3 |
| 20260905162530 | 54 | 330 | 0.0 | 0.0 | 0.00 | 0.00 | 0.00 | 68 | 1019.3 |
| 20260905162018 | 54 | 332 | 0.0 | 0.0 | 0.00 | 0.00 | 0.00 | 69 | 1019.4 |
| 20260905161604 | 53 | 126 | 0.0 | 1.0 | 0.00 | 0.00 | 0.00 | 69 | 1019.5 |
| 20260905161036 | 52 | 340 | 0.0 | 1.0 | 0.00 | 0.00 | 0.00 | 69 | 1019.4 |
| 20260905160521 | 52 | 347 | 0.0 | 2.0 | 0.00 | 0.00 | 0.00 | 72 | 1019.3 |
| 20260905160127 | 51 | 342 | 0.0 | 2.0 | 0.00 | 0.00 | 0.00 | 72 | 1019.3 |
| 20260905155539 | 51 | 316 | 0.0 | 2.0 | 0.00 | 0.00 | 0.00 | 73 | 1019.3 |
| 20260905155026 | 51 | 348 | 0.0 | 0.0 | 0.00 | 0.00 | 0.00 | 77 | 1019.2 |
| 20260905154626 | 50 | 348 | 0.0 | 0.0 | 0.00 | 0.00 | 0.00 | 78 | 1019.2 |
| 20260905154036 | 49 | 348 | 0.0 | 1.0 | 0.00 | 0.00 | 0.00 | 76 | 1019.5 |
| 20260905153546 | 48 | 335 | 0.0 | 2.0 | 0.00 | 0.00 | 0.00 | 80 | 1019.4 |
| 20260905153127 | 48 | 335 | 0.0 | 2.0 | 0.00 | 0.00 | 0.00 | 80 | 1019.4 |
| 20260905152536 | 47 | 335 | 0.0 | 3.0 | 0.00 | 0.00 | 0.00 | 81 | 1019.5 |
| 20260905152023 | 47 | 335 | 1.0 | 3.0 | 0.00 | 0.00 | 0.00 | 81 | 1019.6 |
| 20260905151550 | 46 | 330 | 1.0 | 3.0 | 0.00 | 0.00 | 0.00 | 83 | 1019.6 |
| 20260905151020 | 46 | 304 | 0.0 | 0.0 | 0.00 | 0.00 | 0.00 | 84 | 1019.6 |
| 20260905150527 | 46 | 304 | 0.0 | 2.0 | 0.00 | 0.00 | 0.00 | 83 | 1019.5 |
| 20260905150057 | 45 | 302 | 0.0 | 3.0 | 0.00 | 0.00 | 0.00 | 83 | 1019.5 |
| 20260905145528 | 45 | 306 | 1.0 | 3.0 | 0.00 | 0.00 | 0.00 | 83 | 1019.5 |
| 20260905145027 | 45 | 314 | 1.0 | 3.0 | 0.00 | 0.00 | 0.00 | 85 | 1019.6 |
| 20260905144634 | 44 | 290 | 0.0 | 0.0 | 0.00 | 0.00 | 0.00 | 86 | 1019.5 |
| 20260905144023 | 44 | 294 | 0.0 | 0.0 | 0.00 | 0.00 | 0.00 | 87 | 1019.5 |
| 20260905143524 | 44 | 304 | 0.0 | 0.0 | 0.00 | 0.00 | 0.00 | 88 | 1019.6 |
| 20260905143130 | 44 | 275 | 0.0 | 0.0 | 0.00 | 0.00 | 0.00 | 89 | 1019.5 |
| 20260905142529 | 44 | 265 | 0.0 | 0.0 | 0.00 | 0.00 | 0.00 | 89 | 1019.4 |
| 20260905142025 | 43 | 263 | 0.0 | 0.0 | 0.00 | 0.00 | 0.00 | 89 | 1019.5 |
| 20260905141602 | 43 | 262 | 0.0 | 0.0 | 0.00 | 0.00 | 0.00 | 90 | 1019.4 |
| 20260905141017 | 43 | 298 | 0.0 | 0.0 | 0.00 | 0.00 | 0.00 | 89 | 1019.4 |
| 20260905140525 | 43 | 298 | 0.0 | 0.0 | 0.00 | 0.00 | 0.00 | 88 | 1019.3 |
| 20260905140112 | 43 | 302 | 0.0 | 2.0 | 0.00 | 0.00 | 0.00 | 88 | 1019.3 |
| 20260905135525 | 43 | 302 | 0.0 | 3.0 | 0.00 | 0.00 | 0.00 | 88 | 1019.3 |
| 20260905135024 | 43 | 304 | 1.0 | 3.0 | 0.00 | 0.00 | 0.00 | 88 | 1019.2 |
| 20260905134629 | 43 | 286 | 1.0 | 2.0 | 0.00 | 0.00 | 0.00 | 88 | 1019.1 |
| 20260905134042 | 43 | 261 | 1.0 | 3.0 | 0.00 | 0.00 | 0.00 | 89 | 1019.2 |
| 20260905133536 | 43 | 254 | 1.0 | 3.0 | 0.00 | 0.00 | 0.00 | 88 | 1019.2 |
| 20260905133055 | 43 | 279 | 1.0 | 2.0 | 0.00 | 0.00 | 0.00 | 88 | 1019.1 |
| 20260905132530 | 43 | 279 | 0.0 | 2.0 | 0.00 | 0.00 | 0.00 | 88 | 1019.1 |
| 20260905132022 | 43 | 279 | 0.0 | 2.0 | 0.00 | 0.00 | 0.00 | 88 | 1019.2 |
| 20260905131555 | 43 | 279 | 0.0 | 2.0 | 0.00 | 0.00 | 0.00 | 87 | 1019.1 |
| 20260905131028 | 43 | 279 | 1.0 | 2.0 | 0.00 | 0.00 | 0.00 | 87 | 1019.1 |
| 20260905130519 | 43 | 287 | 0.0 | 2.0 | 0.00 | 0.00 | 0.00 | 86 | 1019.1 |
| 20260905130118 | 44 | 299 | 1.0 | 3.0 | 0.00 | 0.00 | 0.00 | 86 | 1019.1 |
| 20260905125532 | 44 | 288 | 2.0 | 3.0 | 0.00 | 0.00 | 0.00 | 87 | 1019.1 |
| 20260905125036 | 44 | 286 | 1.0 | 3.0 | 0.00 | 0.00 | 0.00 | 87 | 1018.9 |
| 20260905124542 | 44 | 277 | 0.0 | 3.0 | 0.00 | 0.00 | 0.00 | 87 | 1019.0 |
| 20260905124039 | 44 | 267 | 1.0 | 3.0 | 0.00 | 0.00 | 0.00 | 87 | 1019.1 |
| 20260905123533 | 44 | 269 | 0.0 | 3.0 | 0.00 | 0.00 | 0.00 | 88 | 1019.0 |
| 20260905123058 | 44 | 273 | 1.0 | 3.0 | 0.00 | 0.00 | 0.00 | 88 | 1019.0 |
| 20260905122538 | 44 | 288 | 0.0 | 0.0 | 0.00 | 0.00 | 0.00 | 88 | 1019.0 |
| 20260905122019 | 44 | 288 | 0.0 | 2.0 | 0.00 | 0.00 | 0.00 | 88 | 1019.0 |
| 20260905121614 | 44 | 271 | 0.0 | 2.0 | 0.00 | 0.00 | 0.00 | 88 | 1018.9 |
| 20260905121028 | 44 | 271 | 1.0 | 2.0 | 0.00 | 0.00 | 0.00 | 87 | 1019.0 |
| 20260905120526 | 44 | 279 | 0.0 | 1.0 | 0.00 | 0.00 | 0.00 | 86 | 1019.0 |
| 20260905120107 | 44 | 283 | 0.0 | 2.0 | 0.00 | 0.00 | 0.00 | 86 | 1018.9 |
| 20260905115520 | 44 | 283 | 0.0 | 2.0 | 0.00 | 0.00 | 0.00 | 86 | 1019.0 |
| 20260905115028 | 44 | 269 | 0.0 | 2.0 | 0.00 | 0.00 | 0.00 | 86 | 1018.9 |
| 20260905114601 | 44 | 265 | 0.0 | 3.0 | 0.00 | 0.00 | 0.00 | 87 | 1019.0 |
| 20260905114025 | 44 | 265 | 1.0 | 3.0 | 0.00 | 0.00 | 0.00 | 87 | 1018.9 |
| 20260905113531 | 44 | 263 | 2.0 | 3.0 | 0.00 | 0.00 | 0.00 | 87 | 1018.9 |
| 20260905113108 | 44 | 293 | 0.0 | 0.0 | 0.00 | 0.00 | 0.00 | 87 | 1018.9 |
| 20260905112524 | 44 | 293 | 0.0 | 0.0 | 0.00 | 0.00 | 0.00 | 86 | 1018.8 |
| 20260905112032 | 45 | 293 | 0.0 | 2.0 | 0.00 | 0.00 | 0.00 | 87 | 1018.8 |
| 20260905111648 | 45 | 293 | 0.0 | 3.0 | 0.00 | 0.00 | 0.00 | 86 | 1018.9 |
| 20260905111020 | 45 | 294 | 1.0 | 3.0 | 0.00 | 0.00 | 0.00 | 85 | 1018.9 |
| 20260905110522 | 45 | 309 | 2.0 | 3.0 | 0.00 | 0.00 | 0.00 | 85 | 1018.8 |
| 20260905110051 | 45 | 300 | 0.0 | 3.0 | 0.00 | 0.00 | 0.00 | 86 | 1018.8 |
| 20260905105540 | 45 | 266 | 0.0 | 2.0 | 0.00 | 0.00 | 0.00 | 86 | 1018.8 |
| 20260905105033 | 45 | 250 | 0.0 | 2.0 | 0.00 | 0.00 | 0.00 | 86 | 1018.9 |
| 20260905104624 | 45 | 244 | 1.0 | 3.0 | 0.00 | 0.00 | 0.00 | 86 | 1018.8 |
| 20260905104038 | 45 | 240 | 1.0 | 3.0 | 0.00 | 0.00 | 0.00 | 86 | 1018.8 |
| 20260905103534 | 45 | 280 | 0.0 | 2.0 | 0.00 | 0.00 | 0.00 | 86 | 1018.8 |
| 20260905103125 | 45 | 250 | 1.0 | 3.0 | 0.00 | 0.00 | 0.00 | 86 | 1018.7 |
| 20260905102527 | 45 | 254 | 1.0 | 3.0 | 0.00 | 0.00 | 0.00 | 86 | 1018.8 |
| 20260905102043 | 45 | 265 | 1.0 | 3.0 | 0.00 | 0.00 | 0.00 | 85 | 1018.7 |
| 20260905101600 | 45 | 286 | 0.0 | 3.0 | 0.00 | 0.00 | 0.00 | 86 | 1018.7 |
| 20260905101029 | 45 | 290 | 2.0 | 3.0 | 0.00 | 0.00 | 0.00 | 86 | 1018.7 |
| 20260905100541 | 45 | 277 | 1.0 | 3.0 | 0.00 | 0.00 | 0.00 | 85 | 1018.7 |
| 20260905100110 | 45 | 250 | 1.0 | 3.0 | 0.00 | 0.00 | 0.00 | 85 | 1018.6 |
| 20260905095528 | 45 | 251 | 2.0 | 3.0 | 0.00 | 0.00 | 0.00 | 85 | 1018.6 |
| 20260905095027 | 46 | 258 | 1.0 | 3.0 | 0.00 | 0.00 | 0.00 | 85 | 1018.6 |
| 20260905094552 | 46 | 265 | 1.0 | 3.0 | 0.00 | 0.00 | 0.00 | 86 | 1018.5 |
| 20260905094028 | 46 | 252 | 1.0 | 3.0 | 0.00 | 0.00 | 0.00 | 85 | 1018.4 |
| 20260905093540 | 46 | 241 | 1.0 | 3.0 | 0.00 | 0.00 | 0.00 | 85 | 1018.5 |
| 20260905093127 | 46 | 252 | 0.0 | 3.0 | 0.00 | 0.00 | 0.00 | 85 | 1018.5 |
| 20260905092546 | 46 | 248 | 1.0 | 3.0 | 0.00 | 0.00 | 0.00 | 84 | 1018.3 |
| 20260905092042 | 46 | 234 | 1.0 | 3.0 | 0.00 | 0.00 | 0.00 | 84 | 1018.4 |
| 20260905091604 | 46 | 246 | 1.0 | 3.0 | 0.00 | 0.00 | 0.00 | 83 | 1018.4 |
| 20260905091032 | 46 | 245 | 1.0 | 3.0 | 0.00 | 0.00 | 0.00 | 82 | 1018.3 |
| 20260905090519 | 46 | 244 | 1.0 | 3.0 | 0.00 | 0.00 | 0.00 | 83 | 1018.2 |
| 20260905090131 | 47 | 244 | 2.0 | 4.0 | 0.00 | 0.00 | 0.00 | 83 | 1018.1 |
| 20260905085546 | 47 | 237 | 2.0 | 4.0 | 0.00 | 0.00 | 0.00 | 83 | 1018.0 |
| 20260905085024 | 47 | 238 | 2.0 | 3.0 | 0.00 | 0.00 | 0.00 | 84 | 1017.9 |
| 20260905084603 | 47 | 259 | 2.0 | 3.0 | 0.00 | 0.00 | 0.00 | 84 | 1017.8 |
| 20260905084020 | 47 | 250 | 1.0 | 3.0 | 0.00 | 0.00 | 0.00 | 84 | 1017.7 |
| 20260905083542 | 47 | 255 | 2.0 | 4.0 | 0.00 | 0.00 | 0.00 | 84 | 1017.7 |
| 20260905083104 | 47 | 245 | 2.0 | 4.0 | 0.00 | 0.00 | 0.00 | 84 | 1017.7 |
| 20260905082537 | 47 | 253 | 1.0 | 3.0 | 0.00 | 0.00 | 0.00 | 83 | 1017.7 |
| 20260905082025 | 47 | 244 | 2.0 | 4.0 | 0.00 | 0.00 | 0.00 | 82 | 1017.5 |
| 20260905081542 | 47 | 237 | 2.0 | 4.0 | 0.00 | 0.00 | 0.00 | 82 | 1017.7 |
| 20260905081020 | 47 | 219 | 2.0 | 4.0 | 0.00 | 0.00 | 0.00 | 82 | 1017.7 |
| 20260905080538 | 48 | 248 | 1.0 | 4.0 | 0.00 | 0.00 | 0.00 | 82 | 1017.6 |
| 20260905080124 | 48 | 254 | 2.0 | 4.0 | 0.00 | 0.00 | 0.00 | 81 | 1017.6 |
| 20260905075540 | 48 | 254 | 1.0 | 4.0 | 0.00 | 0.00 | 0.00 | 82 | 1017.6 |
| 20260905075042 | 48 | 244 | 1.0 | 4.0 | 0.00 | 0.00 | 0.00 | 82 | 1017.6 |
| 20260905074624 | 48 | 246 | 2.0 | 4.0 | 0.00 | 0.00 | 0.00 | 81 | 1017.6 |
| 20260905074038 | 48 | 244 | 2.0 | 4.0 | 0.00 | 0.00 | 0.00 | 82 | 1017.5 |
| 20260905073521 | 48 | 246 | 2.0 | 4.0 | 0.00 | 0.00 | 0.00 | 82 | 1017.5 |
| 20260905073113 | 48 | 256 | 1.0 | 3.0 | 0.00 | 0.00 | 0.00 | 81 | 1017.5 |
| 20260905072543 | 48 | 226 | 2.0 | 4.0 | 0.00 | 0.00 | 0.00 | 81 | 1017.5 |
| 20260905072028 | 49 | 227 | 2.0 | 4.0 | 0.00 | 0.00 | 0.00 | 81 | 1017.5 |
| 20260905071625 | 49 | 238 | 2.0 | 4.0 | 0.00 | 0.00 | 0.00 | 81 | 1017.4 |
| 20260905071025 | 49 | 246 | 2.0 | 4.0 | 0.00 | 0.00 | 0.00 | 81 | 1017.4 |
| 20260905070541 | 49 | 258 | 1.0 | 4.0 | 0.00 | 0.00 | 0.00 | 82 | 1017.4 |
| 20260905070109 | 49 | 248 | 2.0 | 4.0 | 0.00 | 0.00 | 0.00 | 82 | 1017.4 |
| 20260905065531 | 49 | 281 | 2.0 | 4.0 | 0.00 | 0.00 | 0.00 | 83 | 1017.4 |
| 20260905065022 | 49 | 248 | 1.0 | 3.0 | 0.00 | 0.00 | 0.00 | 82 | 1017.4 |
| 20260905064625 | 50 | 246 | 2.0 | 3.0 | 0.00 | 0.00 | 0.00 | 81 | 1017.4 |
| 20260905064045 | 49 | 260 | 0.0 | 3.0 | 0.00 | 0.00 | 0.00 | 83 | 1017.4 |
| 20260905063525 | 49 | 261 | 0.0 | 3.0 | 0.00 | 0.00 | 0.00 | 82 | 1017.2 |
| 20260905063130 | 50 | 245 | 1.0 | 4.0 | 0.00 | 0.00 | 0.00 | 82 | 1017.1 |
| 20260905062525 | 50 | 257 | 1.0 | 4.0 | 0.00 | 0.00 | 0.00 | 82 | 1017.1 |
| 20260905062032 | 50 | 240 | 2.0 | 3.0 | 0.00 | 0.00 | 0.00 | 81 | 1017.0 |
| 20260905061631 | 50 | 248 | 2.0 | 4.0 | 0.00 | 0.00 | 0.00 | 81 | 1017.0 |
| 20260905061024 | 50 | 240 | 2.0 | 4.0 | 0.00 | 0.00 | 0.00 | 81 | 1017.0 |
| 20260905060532 | 51 | 242 | 2.0 | 3.0 | 0.00 | 0.00 | 0.00 | 81 | 1017.1 |
| 20260905060057 | 51 | 259 | 1.0 | 3.0 | 0.00 | 0.00 | 0.00 | 81 | 1017.1 |
| 20260905055528 | 51 | 240 | 1.0 | 3.0 | 0.00 | 0.00 | 0.00 | 81 | 1017.2 |
| 20260905055027 | 51 | 273 | 0.0 | 3.0 | 0.00 | 0.00 | 0.00 | 81 | 1017.0 |
| 20260905054628 | 51 | 248 | 1.0 | 4.0 | 0.00 | 0.00 | 0.00 | 80 | 1017.1 |
| 20260905054029 | 51 | 251 | 1.0 | 4.0 | 0.00 | 0.00 | 0.00 | 79 | 1017.1 |
| 20260905053524 | 51 | 230 | 2.0 | 4.0 | 0.00 | 0.00 | 0.00 | 79 | 1017.2 |
| 20260905053104 | 51 | 239 | 2.0 | 4.0 | 0.00 | 0.00 | 0.00 | 80 | 1017.2 |
| 20260905052543 | 51 | 241 | 2.0 | 3.0 | 0.00 | 0.00 | 0.00 | 79 | 1017.1 |
| 20260905052019 | 51 | 224 | 0.0 | 3.0 | 0.00 | 0.00 | 0.00 | 80 | 1017.2 |
| 20260905051601 | 51 | 240 | 2.0 | 3.0 | 0.00 | 0.00 | 0.00 | 81 | 1017.2 |
| 20260905051023 | 51 | 236 | 2.0 | 3.0 | 0.00 | 0.00 | 0.00 | 80 | 1017.2 |
| 20260905050532 | 52 | 233 | 1.0 | 3.0 | 0.00 | 0.00 | 0.00 | 79 | 1017.1 |
| 20260905050100 | 52 | 233 | 1.0 | 3.0 | 0.00 | 0.00 | 0.00 | 80 | 1017.1 |
| 20260905045528 | 52 | 226 | 2.0 | 3.0 | 0.00 | 0.00 | 0.00 | 79 | 1016.9 |
| 20260905045030 | 52 | 233 | 1.0 | 2.0 | 0.00 | 0.00 | 0.00 | 78 | 1016.9 |
| 20260905044626 | 52 | 234 | 1.0 | 4.0 | 0.00 | 0.00 | 0.00 | 78 | 1016.8 |
| 20260905044031 | 52 | 222 | 2.0 | 4.0 | 0.00 | 0.00 | 0.00 | 78 | 1016.9 |
| 20260905043539 | 52 | 230 | 2.0 | 3.0 | 0.00 | 0.00 | 0.00 | 77 | 1016.9 |
| 20260905043131 | 53 | 226 | 1.0 | 3.0 | 0.00 | 0.00 | 0.00 | 77 | 1017.0 |
| 20260905042524 | 53 | 223 | 2.0 | 3.0 | 0.00 | 0.00 | 0.00 | 77 | 1017.0 |
| 20260905042029 | 53 | 245 | 1.0 | 3.0 | 0.00 | 0.00 | 0.00 | 78 | 1016.9 |
| 20260905041602 | 53 | 226 | 1.0 | 3.0 | 0.00 | 0.00 | 0.00 | 78 | 1016.8 |
| 20260905041029 | 53 | 238 | 0.0 | 0.0 | 0.00 | 0.00 | 0.00 | 78 | 1016.8 |
| 20260905040520 | 53 | 221 | 0.0 | 0.0 | 0.00 | 0.00 | 0.00 | 77 | 1016.8 |
| 20260905040128 | 53 | 225 | 0.0 | 0.0 | 0.00 | 0.00 | 0.00 | 77 | 1016.7 |
| 20260905035520 | 53 | 225 | 0.0 | 4.0 | 0.00 | 0.00 | 0.00 | 78 | 1016.7 |
| 20260905035044 | 53 | 198 | 1.0 | 4.0 | 0.00 | 0.00 | 0.00 | 78 | 1016.6 |
| 20260905034607 | 53 | 225 | 1.0 | 3.0 | 0.00 | 0.00 | 0.00 | 77 | 1016.5 |
| 20260905034042 | 53 | 225 | 1.0 | 4.0 | 0.00 | 0.00 | 0.00 | 77 | 1016.5 |
| 20260905033531 | 53 | 226 | 2.0 | 3.0 | 0.00 | 0.00 | 0.00 | 77 | 1016.5 |
| 20260905033138 | 53 | 232 | 2.0 | 3.0 | 0.00 | 0.00 | 0.00 | 77 | 1016.5 |
| 20260905032526 | 53 | 225 | 2.0 | 3.0 | 0.00 | 0.00 | 0.00 | 77 | 1016.5 |
| 20260905032038 | 54 | 232 | 0.0 | 3.0 | 0.00 | 0.00 | 0.00 | 77 | 1016.5 |
| 20260905031609 | 54 | 235 | 2.0 | 3.0 | 0.00 | 0.00 | 0.00 | 77 | 1016.2 |
| 20260905031045 | 54 | 240 | 2.0 | 3.0 | 0.00 | 0.00 | 0.00 | 77 | 1016.1 |
| 20260905030534 | 54 | 221 | 0.0 | 3.0 | 0.00 | 0.00 | 0.00 | 76 | 1016.2 |
| 20260905030128 | 55 | 228 | 1.0 | 3.0 | 0.00 | 0.00 | 0.00 | 76 | 1016.1 |
| 20260905025521 | 55 | 223 | 2.0 | 3.0 | 0.00 | 0.00 | 0.00 | 74 | 1016.0 |
| 20260905025027 | 55 | 242 | 1.0 | 3.0 | 0.00 | 0.00 | 0.00 | 73 | 1015.9 |
| 20260905024625 | 55 | 213 | 1.0 | 3.0 | 0.00 | 0.00 | 0.00 | 70 | 1015.9 |
| 20260905024033 | 55 | 243 | 1.0 | 3.0 | 0.00 | 0.00 | 0.00 | 75 | 1015.8 |
| 20260905023540 | 55 | 232 | 1.0 | 3.0 | 0.00 | 0.00 | 0.00 | 75 | 1015.8 |
| 20260905023134 | 56 | 238 | 2.0 | 3.0 | 0.00 | 0.00 | 0.00 | 75 | 1015.7 |
| 20260905022532 | 56 | 229 | 1.0 | 3.0 | 0.00 | 0.00 | 0.00 | 73 | 1015.7 |
| 20260905022018 | 56 | 232 | 1.0 | 3.0 | 0.00 | 0.00 | 0.00 | 72 | 1015.7 |
| 20260905021633 | 57 | 233 | 0.0 | 3.0 | 0.00 | 0.00 | 0.00 | 71 | 1015.8 |
| 20260905021023 | 57 | 226 | 0.0 | 0.0 | 0.00 | 0.00 | 0.00 | 71 | 1015.7 |
| 20260905020522 | 57 | 224 | 0.0 | 0.0 | 0.00 | 0.00 | 0.00 | 67 | 1015.7 |
| 20260905020133 | 57 | 221 | 0.0 | 0.0 | 0.00 | 0.00 | 0.00 | 66 | 1015.5 |
| 20260905015530 | 58 | 206 | 0.0 | 3.0 | 0.00 | 0.00 | 0.00 | 64 | 1015.4 |
| 20260905015030 | 58 | 195 | 1.0 | 3.0 | 0.00 | 0.00 | 0.00 | 68 | 1015.3 |
| 20260905014622 | 58 | 245 | 0.0 | 3.0 | 0.00 | 0.00 | 0.00 | 69 | 1015.2 |
| 20260905014018 | 58 | 250 | 1.0 | 3.0 | 0.00 | 0.00 | 0.00 | 71 | 1015.1 |
| 20260905013528 | 58 | 246 | 0.0 | 1.0 | 0.00 | 0.00 | 0.00 | 72 | 1015.0 |
| 20260905013103 | 58 | 245 | 0.0 | 3.0 | 0.00 | 0.00 | 0.00 | 71 | 1014.9 |
| 20260905012540 | 58 | 246 | 2.0 | 3.0 | 0.00 | 0.00 | 0.00 | 71 | 1015.0 |
| 20260905012041 | 59 | 249 | 1.0 | 3.0 | 0.00 | 0.00 | 0.00 | 69 | 1014.8 |
| 20260905011605 | 59 | 246 | 1.0 | 3.0 | 0.00 | 0.00 | 0.00 | 69 | 1014.9 |
| 20260905011024 | 59 | 246 | 2.0 | 3.0 | 0.00 | 0.00 | 0.00 | 69 | 1015.0 |
| 20260905010537 | 60 | 236 | 1.0 | 3.0 | 0.00 | 0.00 | 0.00 | 68 | 1014.9 |
| 20260905010135 | 60 | 247 | 0.0 | 3.0 | 0.00 | 0.00 | 0.00 | 65 | 1015.0 |
| 20260905005531 | 60 | 254 | 1.0 | 3.0 | 0.00 | 0.00 | 0.00 | 64 | 1014.8 |
| 20260905005028 | 61 | 231 | 0.0 | 2.0 | 0.00 | 0.00 | 0.00 | 61 | 1014.7 |
| 20260905004625 | 61 | 227 | 0.0 | 2.0 | 0.00 | 0.00 | 0.00 | 63 | 1014.8 |
| 20260905004032 | 61 | 227 | 0.0 | 2.0 | 0.00 | 0.00 | 0.00 | 59 | 1014.7 |
| 20260905003531 | 61 | 236 | 1.0 | 3.0 | 0.00 | 0.00 | 0.00 | 58 | 1014.7 |
| 20260905003134 | 62 | 183 | 1.0 | 3.0 | 0.00 | 0.00 | 0.00 | 55 | 1014.6 |
| 20260905002527 | 62 | 197 | 0.0 | 1.0 | 0.00 | 0.00 | 0.00 | 59 | 1014.7 |
| 20260905002022 | 62 | 176 | 0.0 | 2.0 | 0.00 | 0.00 | 0.00 | 56 | 1014.6 |
| 20260905001601 | 62 | 180 | 0.0 | 2.0 | 0.00 | 0.00 | 0.00 | 53 | 1014.6 |
| 20260905001036 | 62 | 166 | 0.0 | 2.0 | 0.00 | 0.00 | 0.00 | 52 | 1014.5 |
| 20260905000528 | 62 | 147 | 0.0 | 2.0 | 0.00 | 0.00 | 0.00 | 52 | 1014.6 |
| 20260905000126 | 62 | 75 | 0.0 | 3.0 | 0.00 | 0.00 | 0.00 | 51 | 1014.5 |
| 20260904235529 | 62 | 213 | 0.0 | 3.0 | 0.00 | 0.00 | 0.00 | 52 | 1014.5 |
| 20260904235027 | 62 | 182 | 0.0 | 5.0 | 0.00 | 0.00 | 0.00 | 51 | 1014.5 |
| 20260904234616 | 62 | 221 | 0.0 | 5.0 | 0.00 | 0.00 | 0.00 | 53 | 1014.6 |
| 20260904234021 | 62 | 223 | 2.0 | 6.0 | 0.00 | 0.00 | 0.00 | 51 | 1014.4 |
| 20260904233538 | 62 | 200 | 2.0 | 4.0 | 0.00 | 0.00 | 0.00 | 49 | 1014.5 |
| 20260904233127 | 62 | 190 | 1.0 | 4.0 | 0.00 | 0.00 | 0.00 | 49 | 1014.5 |
| 20260904232532 | 62 | 156 | 2.0 | 5.0 | 0.00 | 0.00 | 0.00 | 49 | 1014.5 |
| 20260904232043 | 63 | 244 | 0.0 | 5.0 | 0.00 | 0.00 | 0.00 | 48 | 1014.4 |
| 20260904231635 | 63 | 200 | 1.0 | 7.0 | 0.00 | 0.00 | 0.00 | 49 | 1014.4 |
| 20260904231032 | 63 | 221 | 1.0 | 4.0 | 0.00 | 0.00 | 0.00 | 49 | 1014.6 |
| 20260904230525 | 63 | 174 | 0.0 | 5.0 | 0.00 | 0.00 | 0.00 | 49 | 1014.4 |
| 20260904230128 | 63 | 169 | 2.0 | 7.0 | 0.00 | 0.00 | 0.00 | 49 | 1014.4 |
| 20260904225536 | 63 | 196 | 0.0 | 5.0 | 0.00 | 0.00 | 0.00 | 50 | 1014.4 |
| 20260904225026 | 63 | 110 | 1.0 | 4.0 | 0.00 | 0.00 | 0.00 | 53 | 1014.4 |
| 20260904224634 | 63 | 165 | 0.0 | 3.0 | 0.00 | 0.00 | 0.00 | 51 | 1014.4 |
| 20260904224028 | 63 | 313 | 0.0 | 4.0 | 0.00 | 0.00 | 0.00 | 50 | 1014.4 |
| 20260904223528 | 64 | 315 | 1.0 | 5.0 | 0.00 | 0.00 | 0.00 | 49 | 1014.6 |
| 20260904223107 | 64 | 203 | 1.0 | 5.0 | 0.00 | 0.00 | 0.00 | 50 | 1014.5 |
| 20260904222537 | 64 | 5 | 1.0 | 5.0 | 0.00 | 0.00 | 0.00 | 50 | 1014.4 |
| 20260904222029 | 65 | 45 | 1.0 | 4.0 | 0.00 | 0.00 | 0.00 | 48 | 1014.5 |
| 20260904221638 | 65 | 165 | 1.0 | 6.0 | 0.00 | 0.00 | 0.00 | 49 | 1014.3 |
| 20260904221031 | 65 | 62 | 2.0 | 6.0 | 0.00 | 0.00 | 0.00 | 51 | 1014.2 |
| 20260904220526 | 64 | 30 | 1.0 | 5.0 | 0.00 | 0.00 | 0.00 | 53 | 1014.2 |
| 20260904220133 | 64 | 81 | 1.0 | 5.0 | 0.00 | 0.00 | 0.00 | 50 | 1014.4 |
| 20260904215534 | 64 | 32 | 1.0 | 6.0 | 0.00 | 0.00 | 0.00 | 49 | 1014.4 |
| 20260904215037 | 65 | 208 | 0.0 | 6.0 | 0.00 | 0.00 | 0.00 | 50 | 1014.3 |
| 20260904214638 | 66 | 352 | 1.0 | 5.0 | 0.00 | 0.00 | 0.00 | 48 | 1014.4 |
| 20260904214028 | 66 | 178 | 1.0 | 6.0 | 0.00 | 0.00 | 0.00 | 48 | 1014.4 |
| 20260904213541 | 66 | 187 | 3.0 | 6.0 | 0.00 | 0.00 | 0.00 | 45 | 1014.4 |
| 20260904213132 | 65 | 24 | 0.0 | 4.0 | 0.00 | 0.00 | 0.00 | 48 | 1014.2 |
| 20260904212529 | 64 | 352 | 1.0 | 3.0 | 0.00 | 0.00 | 0.00 | 50 | 1014.3 |
| 20260904212024 | 64 | 161 | 0.0 | 2.0 | 0.00 | 0.00 | 0.00 | 50 | 1014.4 |
| 20260904211640 | 63 | 44 | 0.0 | 7.0 | 0.00 | 0.00 | 0.00 | 51 | 1014.4 |
| 20260904211028 | 63 | 5 | 0.0 | 7.0 | 0.00 | 0.00 | 0.00 | 52 | 1014.4 |
| 20260904210539 | 63 | 157 | 0.0 | 2.0 | 0.00 | 0.00 | 0.00 | 55 | 1014.3 |
| 20260904210125 | 63 | 161 | 0.0 | 3.0 | 0.00 | 0.00 | 0.00 | 54 | 1014.3 |
| 20260904205530 | 63 | 102 | 1.0 | 6.0 | 0.00 | 0.00 | 0.00 | 54 | 1014.2 |
| 20260904205031 | 63 | 229 | 2.0 | 6.0 | 0.00 | 0.00 | 0.00 | 55 | 1014.2 |
| 20260904204630 | 63 | 104 | 1.0 | 7.0 | 0.00 | 0.00 | 0.00 | 54 | 1014.3 |
| 20260904204038 | 63 | 178 | 0.0 | 2.0 | 0.00 | 0.00 | 0.00 | 58 | 1014.1 |
| 20260904203540 | 63 | 204 | 0.0 | 4.0 | 0.00 | 0.00 | 0.00 | 55 | 1014.2 |
| 20260904203134 | 63 | 94 | 2.0 | 4.0 | 0.00 | 0.00 | 0.00 | 55 | 1014.3 |
| 20260904202523 | 64 | 212 | 1.0 | 7.0 | 0.00 | 0.00 | 0.00 | 54 | 1014.3 |
| 20260904202044 | 64 | 9 | 2.0 | 9.0 | 0.00 | 0.00 | 0.00 | 57 | 1014.2 |
| 20260904201621 | 63 | 130 | 3.0 | 9.0 | 0.00 | 0.00 | 0.00 | 54 | 1014.0 |
| 20260904201037 | 63 | 225 | 2.0 | 4.0 | 0.00 | 0.00 | 0.00 | 55 | 1014.2 |
| 20260904200536 | 62 | 118 | 0.0 | 2.0 | 0.00 | 0.00 | 0.00 | 59 | 1014.2 |
| 20260904200135 | 62 | 22 | 0.0 | 4.0 | 0.00 | 0.00 | 0.00 | 59 | 1014.4 |